datetime,flow volume
1935-10-30,2657.85124
1935-10-31,2657.85124
1935-11-01,2737.19008
1935-11-02,2181.81818
1935-11-03,41.65289
1935-11-04,245.95041
1935-11-05,1610.57851
1935-11-06,2161.98347
1935-11-07,2499.17355
1935-11-08,2300.82645
1935-11-09,874.71074
1935-11-10,25.78512
1935-11-11,77.35537
1935-11-12,25.78512
1935-11-13,25.78512
1935-11-14,25.78512
1935-11-15,25.78512
1935-11-16,27.7686
1935-11-17,25.78512
1935-11-18,25.78512
1935-11-19,25.78512
1935-11-20,25.78512
1935-11-21,25.78512
1935-11-22,25.78512
1935-11-23,25.78512
1935-11-24,25.78512
1935-11-25,25.78512
1935-11-26,25.78512
1935-11-27,25.78512
1935-11-28,25.78512
1935-11-29,25.78512
1935-11-30,25.78512
1935-12-01,25.78512
1935-12-02,25.78512
1935-12-03,25.78512
1935-12-04,21.81818
1935-12-05,21.81818
1935-12-06,21.81818
1935-12-07,21.81818
1935-12-08,21.81818
1935-12-09,23.80165
1935-12-10,23.80165
1935-12-11,23.80165
1935-12-12,23.80165
1935-12-13,23.80165
1935-12-14,23.80165
1935-12-15,23.80165
1935-12-16,23.80165
1935-12-17,25.78512
1935-12-18,23.80165
1935-12-19,23.80165
1935-12-20,23.80165
1935-12-21,23.80165
1935-12-22,23.80165
1935-12-23,23.80165
1935-12-24,25.78512
1935-12-25,23.80165
1935-12-26,21.81818
1935-12-27,21.81818
1935-12-28,21.81818
1935-12-29,21.81818
1935-12-30,21.81818
1935-12-31,21.81818
1936-01-01,21.81818
1936-01-02,21.81818
1936-01-03,21.81818
1936-01-04,21.81818
1936-01-05,21.81818
1936-01-06,21.81818
1936-01-07,21.81818
1936-01-08,21.81818
1936-01-09,21.81818
1936-01-10,21.81818
1936-01-11,21.81818
1936-01-12,21.81818
1936-01-13,21.81818
1936-01-14,21.81818
1936-01-15,21.81818
1936-01-16,21.81818
1936-01-17,19.83471
1936-01-18,21.81818
1936-01-19,21.81818
1936-01-20,21.81818
1936-01-21,21.81818
1936-01-22,21.81818
1936-01-23,21.81818
1936-01-24,21.81818
1936-01-25,21.81818
1936-01-26,21.81818
1936-01-27,21.81818
1936-01-28,21.81818
1936-01-29,21.81818
1936-01-30,21.81818
1936-01-31,23.80165
1936-02-01,21.81818
1936-02-02,21.81818
1936-02-03,23.80165
1936-02-04,23.80165
1936-02-05,23.80165
1936-02-06,23.80165
1936-02-07,21.81818
1936-02-08,21.81818
1936-02-09,25.78512
1936-02-10,25.78512
1936-02-11,25.78512
1936-02-12,23.80165
1936-02-13,23.80165
1936-02-14,25.78512
1936-02-15,23.80165
1936-02-16,23.80165
1936-02-17,25.78512
1936-02-18,23.80165
1936-02-19,21.81818
1936-02-20,23.80165
1936-02-21,25.78512
1936-02-22,25.78512
1936-02-23,27.7686
1936-02-24,27.7686
1936-02-25,27.7686
1936-02-26,25.78512
1936-02-27,25.78512
1936-02-28,23.80165
1936-02-29,21.81818
1936-03-01,21.81818
1936-03-02,23.80165
1936-03-03,23.80165
1936-03-04,25.78512
1936-03-05,25.78512
1936-03-06,25.78512
1936-03-07,29.75207
1936-03-08,31.73554
1936-03-09,31.73554
1936-03-10,33.71901
1936-03-11,33.71901
1936-03-12,51.57025
1936-03-13,547.43802
1936-03-14,856.8595
1936-03-15,997.68595
1936-03-16,1033.38843
1936-03-17,1023.47107
1936-03-18,1015.53719
1936-03-19,1023.47107
1936-03-20,987.7686
1936-03-21,971.90083
1936-03-22,926.28099
1936-03-23,900.49587
1936-03-24,848.92562
1936-03-25,833.05785
1936-03-26,833.05785
1936-03-27,833.05785
1936-03-28,840.99174
1936-03-29,378.84298
1936-03-30,31.73554
1936-03-31,51.57025
1936-04-01,79.33884
1936-04-02,103.1405
1936-04-03,138.84298
1936-04-04,182.47934
1936-04-05,212.2314
1936-04-06,253.8843
1936-04-07,301.4876
1936-04-08,345.12397
1936-04-09,458.18182
1936-04-10,602.97521
1936-04-11,825.12397
1936-04-12,1190.08264
1936-04-13,1725.61983
1936-04-14,2221.4876
1936-04-15,2737.19008
1936-04-16,3490.90909
1936-04-17,4284.29752
1936-04-18,4919.00826
1936-04-19,5276.03306
1936-04-20,5672.72727
1936-04-21,6069.42149
1936-04-22,6466.1157
1936-04-23,6882.64463
1936-04-24,6664.46281
1936-04-25,6664.46281
1936-04-26,6466.1157
1936-04-27,6069.42149
1936-04-28,6069.42149
1936-04-29,5097.52066
1936-04-30,4542.14876
1936-05-01,4542.14876
1936-05-02,4542.14876
1936-05-03,5474.38017
1936-05-04,5871.07438
1936-05-05,5672.72727
1936-05-06,5474.38017
1936-05-07,5097.52066
1936-05-08,4720.66116
1936-05-09,4284.29752
1936-05-10,3847.93388
1936-05-11,3490.90909
1936-05-12,3332.2314
1936-05-13,3173.55372
1936-05-14,1378.5124
1936-05-15,1015.53719
1936-05-16,1319.00826
1936-05-17,1319.00826
1936-05-18,1309.09091
1936-05-19,894.54545
1936-05-20,493.8843
1936-05-21,714.04959
1936-05-22,840.99174
1936-05-23,840.99174
1936-05-24,817.19008
1936-05-25,809.2562
1936-05-26,833.05785
1936-05-27,900.49587
1936-05-28,916.36364
1936-05-29,908.42975
1936-05-30,908.42975
1936-05-31,890.57851
1936-06-01,900.49587
1936-06-02,890.57851
1936-06-03,890.57851
1936-06-04,890.57851
1936-06-05,848.92562
1936-06-06,745.78512
1936-06-07,729.91736
1936-06-08,721.98347
1936-06-09,987.7686
1936-06-10,2102.47934
1936-06-11,2221.4876
1936-06-12,2161.98347
1936-06-13,1392.39669
1936-06-14,833.05785
1936-06-15,961.98347
1936-06-16,1319.00826
1936-06-17,2023.1405
1936-06-18,1967.60331
1936-06-19,1967.60331
1936-06-20,1844.6281
1936-06-21,1785.12397
1936-06-22,2023.1405
1936-06-23,2221.4876
1936-06-24,2161.98347
1936-06-25,2300.82645
1936-06-26,2023.1405
1936-06-27,2102.47934
1936-06-28,1844.6281
1936-06-29,1967.60331
1936-06-30,1844.6281
1936-07-01,2023.1405
1936-07-02,2102.47934
1936-07-03,2102.47934
1936-07-04,2023.1405
1936-07-05,1967.60331
1936-07-06,1904.13223
1936-07-07,1785.12397
1936-07-08,1610.57851
1936-07-09,1469.75207
1936-07-10,1180.16529
1936-07-11,684.29752
1936-07-12,672.39669
1936-07-13,686.28099
1936-07-14,761.65289
1936-07-15,971.90083
1936-07-16,936.19835
1936-07-17,761.65289
1936-07-18,769.58678
1936-07-19,777.52066
1936-07-20,785.45455
1936-07-21,769.58678
1936-07-22,761.65289
1936-07-23,1537.19008
1936-07-24,2023.1405
1936-07-25,2221.4876
1936-07-26,2221.4876
1936-07-27,2221.4876
1936-07-28,2380.16529
1936-07-29,2578.5124
1936-07-30,2499.17355
1936-07-31,2578.5124
1936-08-01,2102.47934
1936-08-02,1904.13223
1936-08-03,1844.6281
1936-08-04,787.43802
1936-08-05,111.07438
1936-08-06,111.07438
1936-08-07,610.90909
1936-08-08,1666.1157
1936-08-09,1666.1157
1936-08-10,1785.12397
1936-08-11,2161.98347
1936-08-12,1973.55372
1936-08-13,2161.98347
1936-08-14,2161.98347
1936-08-15,2161.98347
1936-08-16,2102.47934
1936-08-17,2102.47934
1936-08-18,2102.47934
1936-08-19,2102.47934
1936-08-20,2102.47934
1936-08-21,1011.57025
1936-08-22,301.4876
1936-08-23,289.58678
1936-08-24,936.19835
1936-08-25,1610.57851
1936-08-26,1610.57851
1936-08-27,1610.57851
1936-08-28,1610.57851
1936-08-29,1725.61983
1936-08-30,1513.38843
1936-08-31,1360.66116
1936-09-01,1360.66116
1936-09-02,1360.66116
1936-09-03,1360.66116
1936-09-04,1348.76033
1936-09-05,1348.76033
1936-09-06,1348.76033
1936-09-07,1338.84298
1936-09-08,1338.84298
1936-09-09,1338.84298
1936-09-10,1338.84298
1936-09-11,1338.84298
1936-09-12,1328.92562
1936-09-13,1328.92562
1936-09-14,1319.00826
1936-09-15,1319.00826
1936-09-16,1309.09091
1936-09-17,1309.09091
1936-09-18,1338.84298
1936-09-19,1200.0
1936-09-20,1392.39669
1936-09-21,1328.92562
1936-09-22,944.13223
1936-09-23,900.49587
1936-09-24,388.76033
1936-09-25,19.83471
1936-09-26,37.68595
1936-09-27,251.90083
1936-09-28,277.68595
1936-09-29,31.73554
1936-09-30,27.7686
1936-10-01,25.78512
1936-10-02,25.78512
1936-10-03,21.81818
1936-10-04,18.64463
1936-10-05,18.64463
1936-10-06,21.81818
1936-10-07,21.81818
1936-10-08,21.81818
1936-10-09,23.80165
1936-10-10,23.80165
1936-10-11,130.90909
1936-10-12,686.28099
1936-10-13,801.32231
1936-10-14,801.32231
1936-10-15,793.38843
1936-10-16,793.38843
1936-10-17,785.45455
1936-10-18,785.45455
1936-10-19,785.45455
1936-10-20,785.45455
1936-10-21,777.52066
1936-10-22,971.90083
1936-10-23,1348.76033
1936-10-24,1319.00826
1936-10-25,1309.09091
1936-10-26,1299.17355
1936-10-27,1289.2562
1936-10-28,1382.47934
1936-10-29,1033.38843
1936-10-30,1277.35537
1936-10-31,1610.57851
1936-11-01,1610.57851
1936-11-02,1557.02479
1936-11-03,1557.02479
1936-11-04,1557.02479
1936-11-05,1547.10744
1936-11-06,1049.2562
1936-11-07,7.33884
1936-11-08,7.33884
1936-11-09,7.33884
1936-11-10,7.33884
1936-11-11,7.33884
1936-11-12,7.73554
1936-11-13,7.73554
1936-11-14,7.73554
1936-11-15,8.52893
1936-11-16,8.52893
1936-11-17,8.52893
1936-11-18,8.52893
1936-11-19,8.52893
1936-11-20,8.52893
1936-11-21,8.52893
1936-11-22,8.52893
1936-11-23,8.52893
1936-11-24,8.52893
1936-11-25,9.12397
1936-11-26,8.52893
1936-11-27,8.52893
1936-11-28,8.52893
1936-11-29,8.52893
1936-11-30,8.52893
1936-12-01,8.52893
1936-12-02,9.12397
1936-12-03,9.12397
1936-12-04,9.12397
1936-12-05,9.12397
1936-12-06,9.12397
1936-12-07,9.12397
1936-12-08,8.52893
1936-12-09,8.52893
1936-12-10,8.52893
1936-12-11,8.52893
1936-12-12,8.52893
1936-12-13,8.52893
1936-12-14,8.52893
1936-12-15,9.12397
1936-12-16,9.12397
1936-12-17,9.12397
1936-12-18,9.12397
1936-12-19,9.12397
1936-12-20,9.12397
1936-12-21,9.12397
1936-12-22,8.52893
1936-12-23,8.52893
1936-12-24,8.52893
1936-12-25,8.52893
1936-12-26,8.52893
1936-12-27,9.12397
1936-12-28,9.12397
1936-12-29,9.12397
1936-12-30,9.91736
1936-12-31,9.91736
1937-01-01,9.12397
1937-01-02,9.91736
1937-01-03,9.12397
1937-01-04,9.12397
1937-01-05,9.12397
1937-01-06,9.12397
1937-01-07,9.12397
1937-01-08,8.52893
1937-01-09,8.52893
1937-01-10,9.12397
1937-01-11,9.12397
1937-01-12,9.12397
1937-01-13,9.12397
1937-01-14,9.12397
1937-01-15,8.52893
1937-01-16,8.52893
1937-01-17,8.52893
1937-01-18,8.52893
1937-01-19,9.12397
1937-01-20,10.5124
1937-01-21,9.91736
1937-01-22,10.5124
1937-01-23,10.5124
1937-01-24,10.5124
1937-01-25,10.5124
1937-01-26,10.5124
1937-01-27,10.5124
1937-01-28,10.5124
1937-01-29,10.5124
1937-01-30,10.5124
1937-01-31,11.30579
1937-02-01,11.30579
1937-02-02,11.30579
1937-02-03,12.09917
1937-02-04,12.09917
1937-02-05,12.09917
1937-02-06,12.09917
1937-02-07,49.58678
1937-02-08,14.87603
1937-02-09,12.09917
1937-02-10,245.95041
1937-02-11,533.55372
1937-02-12,527.60331
1937-02-13,527.60331
1937-02-14,533.55372
1937-02-15,539.50413
1937-02-16,527.60331
1937-02-17,519.66942
1937-02-18,555.3719
1937-02-19,650.57851
1937-02-20,650.57851
1937-02-21,650.57851
1937-02-22,555.3719
1937-02-23,5.15702
1937-02-24,6.34711
1937-02-25,595.04132
1937-02-26,1059.17355
1937-02-27,1122.64463
1937-02-28,1249.58678
1937-03-01,1249.58678
1937-03-02,1249.58678
1937-03-03,1249.58678
1937-03-04,1239.66942
1937-03-05,1219.83471
1937-03-06,1229.75207
1937-03-07,1249.58678
1937-03-08,1229.75207
1937-03-09,1249.58678
1937-03-10,1239.66942
1937-03-11,1229.75207
1937-03-12,1200.0
1937-03-13,1209.91736
1937-03-14,1219.83471
1937-03-15,1200.0
1937-03-16,1209.91736
1937-03-17,1209.91736
1937-03-18,1200.0
1937-03-19,1200.0
1937-03-20,1200.0
1937-03-21,1200.0
1937-03-22,1130.57851
1937-03-23,997.68595
1937-03-24,1114.71074
1937-03-25,1200.0
1937-03-26,1200.0
1937-03-27,1200.0
1937-03-28,1200.0
1937-03-29,1200.0
1937-03-30,1200.0
1937-03-31,1200.0
1937-04-01,1209.91736
1937-04-02,1219.83471
1937-04-03,511.73554
1937-04-04,8.52893
1937-04-05,321.32231
1937-04-06,561.32231
1937-04-07,567.27273
1937-04-08,575.20661
1937-04-09,874.71074
1937-04-10,1328.92562
1937-04-11,1348.76033
1937-04-12,1372.56198
1937-04-13,1404.29752
1937-04-14,1209.91736
1937-04-15,1094.87603
1937-04-16,1114.71074
1937-04-17,1130.57851
1937-04-18,1150.41322
1937-04-19,1170.24793
1937-04-20,1170.24793
1937-04-21,1190.08264
1937-04-22,1209.91736
1937-04-23,1404.29752
1937-04-24,2102.47934
1937-04-25,2657.85124
1937-04-26,3173.55372
1937-04-27,3927.27273
1937-04-28,4363.63636
1937-04-29,4542.14876
1937-04-30,4542.14876
1937-05-01,4561.98347
1937-05-02,4680.99174
1937-05-03,5038.01653
1937-05-04,5593.38843
1937-05-05,6287.60331
1937-05-06,6942.14876
1937-05-07,7061.15702
1937-05-08,7299.17355
1937-05-09,7537.19008
1937-05-10,7795.04132
1937-05-11,8052.89256
1937-05-12,8052.89256
1937-05-13,8310.7438
1937-05-14,8310.7438
1937-05-15,7537.19008
1937-05-16,7279.33884
1937-05-17,7279.33884
1937-05-18,7279.33884
1937-05-19,6783.47107
1937-05-20,6545.45455
1937-05-21,5514.04959
1937-05-22,4363.63636
1937-05-23,3887.60331
1937-05-24,3986.77686
1937-05-25,3728.92562
1937-05-26,3213.22314
1937-05-27,3213.22314
1937-05-28,2776.8595
1937-05-29,3133.8843
1937-05-30,3728.92562
1937-05-31,3728.92562
1937-06-01,3986.77686
1937-06-02,3986.77686
1937-06-03,3530.57851
1937-06-04,3292.56198
1937-06-05,3292.56198
1937-06-06,2776.8595
1937-06-07,2558.67769
1937-06-08,2499.17355
1937-06-09,2360.33058
1937-06-10,1834.71074
1937-06-11,1834.71074
1937-06-12,1834.71074
1937-06-13,1834.71074
1937-06-14,1834.71074
1937-06-15,1824.79339
1937-06-16,1824.79339
1937-06-17,1824.79339
1937-06-18,1824.79339
1937-06-19,1586.77686
1937-06-20,991.73554
1937-06-21,793.38843
1937-06-22,793.38843
1937-06-23,1190.08264
1937-06-24,1586.77686
1937-06-25,2380.16529
1937-06-26,2181.81818
1937-06-27,1983.47107
1937-06-28,1785.12397
1937-06-29,1586.77686
1937-06-30,1388.42975
1937-07-01,991.73554
1937-07-02,866.77686
1937-07-03,858.84298
1937-07-04,858.84298
1937-07-05,803.30579
1937-07-06,694.21488
1937-07-07,1319.00826
1937-07-08,1319.00826
1937-07-09,908.42975
1937-07-10,599.00826
1937-07-11,579.17355
1937-07-12,579.17355
1937-07-13,579.17355
1937-07-14,571.23967
1937-07-15,579.17355
1937-07-16,773.55372
1937-07-17,1319.00826
1937-07-18,1319.00826
1937-07-19,1820.82645
1937-07-20,2638.01653
1937-07-21,2697.52066
1937-07-22,2697.52066
1937-07-23,2558.67769
1937-07-24,2697.52066
1937-07-25,2895.86777
1937-07-26,2776.8595
1937-07-27,2558.67769
1937-07-28,2360.33058
1937-07-29,1781.15702
1937-07-30,1566.94215
1937-07-31,1319.00826
1937-08-01,1229.75207
1937-08-02,946.1157
1937-08-03,795.3719
1937-08-04,795.3719
1937-08-05,795.3719
1937-08-06,1557.02479
1937-08-07,2122.31405
1937-08-08,2062.80992
1937-08-09,2062.80992
1937-08-10,2360.33058
1937-08-11,2618.18182
1937-08-12,2697.52066
1937-08-13,2697.52066
1937-08-14,2895.86777
1937-08-15,2975.20661
1937-08-16,2975.20661
1937-08-17,2895.86777
1937-08-18,2895.86777
1937-08-19,2895.86777
1937-08-20,2895.86777
1937-08-21,2499.17355
1937-08-22,2300.82645
1937-08-23,2241.32231
1937-08-24,2241.32231
1937-08-25,2241.32231
1937-08-26,2241.32231
1937-08-27,2241.32231
1937-08-28,2181.81818
1937-08-29,2241.32231
1937-08-30,2300.82645
1937-08-31,2261.15702
1937-09-01,2241.32231
1937-09-02,2241.32231
1937-09-03,2241.32231
1937-09-04,2003.30579
1937-09-05,1834.71074
1937-09-06,1834.71074
1937-09-07,1834.71074
1937-09-08,1781.15702
1937-09-09,1781.15702
1937-09-10,1781.15702
1937-09-11,1781.15702
1937-09-12,1517.35537
1937-09-13,1368.59504
1937-09-14,1368.59504
1937-09-15,1319.00826
1937-09-16,1051.23967
1937-09-17,890.57851
1937-09-18,890.57851
1937-09-19,890.57851
1937-09-20,898.5124
1937-09-21,906.44628
1937-09-22,914.38017
1937-09-23,906.44628
1937-09-24,1015.53719
1937-09-25,1368.59504
1937-09-26,1319.00826
1937-09-27,1319.00826
1937-09-28,1319.00826
1937-09-29,1368.59504
1937-09-30,789.42149
1937-10-01,438.34711
1937-10-02,432.39669
1937-10-03,432.39669
1937-10-04,426.44628
1937-10-05,426.44628
1937-10-06,432.39669
1937-10-07,438.34711
1937-10-08,438.34711
1937-10-09,438.34711
1937-10-10,444.29752
1937-10-11,444.29752
1937-10-12,444.29752
1937-10-13,432.39669
1937-10-14,426.44628
1937-10-15,414.54545
1937-10-16,402.64463
1937-10-17,368.92562
1937-10-18,357.02479
1937-10-19,353.05785
1937-10-20,353.05785
1937-10-21,353.05785
1937-10-22,353.05785
1937-10-23,305.45455
1937-10-24,120.99174
1937-10-25,77.35537
1937-10-26,77.35537
1937-10-27,77.35537
1937-10-28,77.35537
1937-10-29,77.35537
1937-10-30,79.33884
1937-10-31,83.30579
1937-11-01,83.30579
1937-11-02,83.30579
1937-11-03,79.33884
1937-11-04,79.33884
1937-11-05,77.35537
1937-11-06,77.35537
1937-11-07,77.35537
1937-11-08,495.86777
1937-11-09,827.10744
1937-11-10,819.17355
1937-11-11,866.77686
1937-11-12,971.90083
1937-11-13,971.90083
1937-11-14,961.98347
1937-11-15,954.04959
1937-11-16,938.18182
1937-11-17,400.66116
1937-11-18,3.57025
1937-11-19,3.3719
1937-11-20,3.3719
1937-11-21,3.17355
1937-11-22,3.17355
1937-11-23,3.17355
1937-11-24,3.17355
1937-11-25,3.17355
1937-11-26,3.17355
1937-11-27,3.17355
1937-11-28,3.17355
1937-11-29,3.17355
1937-11-30,3.17355
1937-12-01,3.17355
1937-12-02,3.3719
1937-12-03,3.3719
1937-12-04,3.57025
1937-12-05,3.96694
1937-12-06,3.96694
1937-12-07,3.96694
1937-12-08,3.96694
1937-12-09,3.96694
1937-12-10,3.96694
1937-12-11,3.96694
1937-12-12,3.96694
1937-12-13,4.56198
1937-12-14,5.15702
1937-12-15,4.56198
1937-12-16,4.56198
1937-12-17,4.56198
1937-12-18,4.56198
1937-12-19,3.96694
1937-12-20,3.96694
1937-12-21,3.96694
1937-12-22,3.96694
1937-12-23,3.96694
1937-12-24,3.96694
1937-12-25,3.96694
1937-12-26,3.96694
1937-12-27,3.96694
1937-12-28,3.96694
1937-12-29,3.96694
1937-12-30,3.96694
1937-12-31,3.7686
1938-01-01,3.96694
1938-01-02,3.96694
1938-01-03,3.96694
1938-01-04,3.96694
1938-01-05,3.96694
1938-01-06,3.96694
1938-01-07,3.96694
1938-01-08,3.96694
1938-01-09,3.96694
1938-01-10,3.96694
1938-01-11,3.96694
1938-01-12,3.96694
1938-01-13,3.96694
1938-01-14,3.96694
1938-01-15,3.96694
1938-01-16,3.96694
1938-01-17,3.96694
1938-01-18,3.7686
1938-01-19,3.7686
1938-01-20,3.7686
1938-01-21,3.57025
1938-01-22,3.57025
1938-01-23,3.3719
1938-01-24,3.57025
1938-01-25,3.57025
1938-01-26,3.57025
1938-01-27,3.57025
1938-01-28,3.57025
1938-01-29,3.57025
1938-01-30,3.57025
1938-01-31,3.7686
1938-02-01,3.7686
1938-02-02,3.7686
1938-02-03,3.96694
1938-02-04,3.96694
1938-02-05,3.96694
1938-02-06,3.96694
1938-02-07,3.96694
1938-02-08,3.7686
1938-02-09,3.7686
1938-02-10,3.7686
1938-02-11,5.75207
1938-02-12,17.85124
1938-02-13,7.53719
1938-02-14,6.34711
1938-02-15,3.7686
1938-02-16,3.7686
1938-02-17,3.7686
1938-02-18,3.7686
1938-02-19,3.7686
1938-02-20,3.7686
1938-02-21,3.7686
1938-02-22,3.96694
1938-02-23,3.96694
1938-02-24,4.56198
1938-02-25,4.56198
1938-02-26,4.56198
1938-02-27,4.56198
1938-02-28,8.13223
1938-03-01,6.94215
1938-03-02,5.75207
1938-03-03,3.7686
1938-03-04,3.17355
1938-03-05,3.17355
1938-03-06,3.17355
1938-03-07,3.17355
1938-03-08,3.17355
1938-03-09,3.17355
1938-03-10,3.17355
1938-03-11,3.3719
1938-03-12,3.3719
1938-03-13,3.57025
1938-03-14,3.57025
1938-03-15,3.57025
1938-03-16,3.57025
1938-03-17,3.57025
1938-03-18,3.57025
1938-03-19,3.57025
1938-03-20,3.57025
1938-03-21,3.57025
1938-03-22,3.57025
1938-03-23,3.57025
1938-03-24,3.57025
1938-03-25,3.3719
1938-03-26,3.57025
1938-03-27,3.57025
1938-03-28,3.57025
1938-03-29,3.57025
1938-03-30,3.57025
1938-03-31,3.57025
1938-04-01,3.57025
1938-04-02,3.57025
1938-04-03,3.57025
1938-04-04,3.57025
1938-04-05,3.57025
1938-04-06,8.72727
1938-04-07,23.80165
1938-04-08,23.80165
1938-04-09,23.80165
1938-04-10,21.81818
1938-04-11,19.83471
1938-04-12,19.83471
1938-04-13,267.7686
1938-04-14,626.77686
1938-04-15,626.77686
1938-04-16,618.84298
1938-04-17,618.84298
1938-04-18,523.63636
1938-04-19,331.23967
1938-04-20,331.23967
1938-04-21,331.23967
1938-04-22,351.07438
1938-04-23,241.98347
1938-04-24,329.2562
1938-04-25,269.75207
1938-04-26,277.68595
1938-04-27,287.60331
1938-04-28,291.57025
1938-04-29,644.6281
1938-04-30,1705.78512
1938-05-01,2558.67769
1938-05-02,3054.54545
1938-05-03,3213.22314
1938-05-04,3292.56198
1938-05-05,3292.56198
1938-05-06,3213.22314
1938-05-07,3133.8843
1938-05-08,2975.20661
1938-05-09,2895.86777
1938-05-10,2776.8595
1938-05-11,2697.52066
1938-05-12,2201.65289
1938-05-13,1670.08264
1938-05-14,1834.71074
1938-05-15,2221.4876
1938-05-16,3629.75207
1938-05-17,3808.26446
1938-05-18,3986.77686
1938-05-19,4165.28926
1938-05-20,4165.28926
1938-05-21,4264.46281
1938-05-22,4363.63636
1938-05-23,4363.63636
1938-05-24,4363.63636
1938-05-25,3530.57851
1938-05-26,2836.36364
1938-05-27,2895.86777
1938-05-28,2975.20661
1938-05-29,2975.20661
1938-05-30,3054.54545
1938-05-31,3054.54545
1938-06-01,2776.8595
1938-06-02,2062.80992
1938-06-03,2062.80992
1938-06-04,2062.80992
1938-06-05,2181.81818
1938-06-06,3054.54545
1938-06-07,3133.8843
1938-06-08,2975.20661
1938-06-09,2360.33058
1938-06-10,2300.82645
1938-06-11,2241.32231
1938-06-12,2241.32231
1938-06-13,2062.80992
1938-06-14,2003.30579
1938-06-15,2003.30579
1938-06-16,1876.36364
1938-06-17,946.1157
1938-06-18,1130.57851
1938-06-19,1150.41322
1938-06-20,1150.41322
1938-06-21,1140.49587
1938-06-22,1114.71074
1938-06-23,950.08264
1938-06-24,918.34711
1938-06-25,523.63636
1938-06-26,523.63636
1938-06-27,515.70248
1938-06-28,515.70248
1938-06-29,571.23967
1938-06-30,906.44628
1938-07-01,1319.00826
1938-07-02,1130.57851
1938-07-03,1104.79339
1938-07-04,1051.23967
1938-07-05,906.44628
1938-07-06,890.57851
1938-07-07,882.64463
1938-07-08,874.71074
1938-07-09,938.18182
1938-07-10,1319.00826
1938-07-11,1368.59504
1938-07-12,2042.97521
1938-07-13,3213.22314
1938-07-14,3629.75207
1938-07-15,3629.75207
1938-07-16,3371.90083
1938-07-17,3292.56198
1938-07-18,3133.8843
1938-07-19,3054.54545
1938-07-20,2836.36364
1938-07-21,2776.8595
1938-07-22,2697.52066
1938-07-23,2558.67769
1938-07-24,2419.83471
1938-07-25,2300.82645
1938-07-26,2181.81818
1938-07-27,2122.31405
1938-07-28,2419.83471
1938-07-29,2836.36364
1938-07-30,2895.86777
1938-07-31,2340.49587
1938-08-01,2419.83471
1938-08-02,2419.83471
1938-08-03,2419.83471
1938-08-04,2419.83471
1938-08-05,2419.83471
1938-08-06,2499.17355
1938-08-07,2975.20661
1938-08-08,3133.8843
1938-08-09,3054.54545
1938-08-10,3054.54545
1938-08-11,3054.54545
1938-08-12,3054.54545
1938-08-13,2836.36364
1938-08-14,2558.67769
1938-08-15,2558.67769
1938-08-16,2558.67769
1938-08-17,2558.67769
1938-08-18,2558.67769
1938-08-19,2558.67769
1938-08-20,2320.66116
1938-08-21,2419.83471
1938-08-22,2499.17355
1938-08-23,2499.17355
1938-08-24,2558.67769
1938-08-25,2499.17355
1938-08-26,2499.17355
1938-08-27,2499.17355
1938-08-28,2499.17355
1938-08-29,2499.17355
1938-08-30,2499.17355
1938-08-31,2499.17355
1938-09-01,1576.8595
1938-09-02,1114.71074
1938-09-03,898.5124
1938-09-04,827.10744
1938-09-05,827.10744
1938-09-06,819.17355
1938-09-07,827.10744
1938-09-08,819.17355
1938-09-09,819.17355
1938-09-10,819.17355
1938-09-11,811.23967
1938-09-12,827.10744
1938-09-13,803.30579
1938-09-14,803.30579
1938-09-15,803.30579
1938-09-16,803.30579
1938-09-17,803.30579
1938-09-18,803.30579
1938-09-19,803.30579
1938-09-20,599.00826
1938-09-21,426.44628
1938-09-22,432.39669
1938-09-23,646.61157
1938-09-24,696.19835
1938-09-25,662.47934
1938-09-26,626.77686
1938-09-27,606.94215
1938-09-28,606.94215
1938-09-29,606.94215
1938-09-30,606.94215
1938-10-01,579.17355
1938-10-02,579.17355
1938-10-03,579.17355
1938-10-04,569.2562
1938-10-05,569.2562
1938-10-06,569.2562
1938-10-07,569.2562
1938-10-08,579.17355
1938-10-09,569.2562
1938-10-10,569.2562
1938-10-11,569.2562
1938-10-12,569.2562
1938-10-13,569.2562
1938-10-14,569.2562
1938-10-15,452.2314
1938-10-16,388.76033
1938-10-17,388.76033
1938-10-18,380.82645
1938-10-19,357.02479
1938-10-20,273.71901
1938-10-21,273.71901
1938-10-22,273.71901
1938-10-23,273.71901
1938-10-24,273.71901
1938-10-25,273.71901
1938-10-26,273.71901
1938-10-27,273.71901
1938-10-28,273.71901
1938-10-29,273.71901
1938-10-30,265.78512
1938-10-31,265.78512
1938-11-01,265.78512
1938-11-02,265.78512
1938-11-03,265.78512
1938-11-04,265.78512
1938-11-05,265.78512
1938-11-06,265.78512
1938-11-07,265.78512
1938-11-08,265.78512
1938-11-09,265.78512
1938-11-10,162.64463
1938-11-11,130.90909
1938-11-12,130.90909
1938-11-13,130.90909
1938-11-14,93.22314
1938-11-15,13.8843
1938-11-16,25.78512
1938-11-17,29.75207
1938-11-18,29.75207
1938-11-19,27.7686
1938-11-20,27.7686
1938-11-21,27.7686
1938-11-22,27.7686
1938-11-23,27.7686
1938-11-24,27.7686
1938-11-25,25.78512
1938-11-26,25.78512
1938-11-27,23.80165
1938-11-28,23.80165
1938-11-29,23.80165
1938-11-30,23.80165
1938-12-01,23.80165
1938-12-02,23.80165
1938-12-03,23.80165
1938-12-04,21.81818
1938-12-05,21.81818
1938-12-06,21.81818
1938-12-07,23.80165
1938-12-08,27.7686
1938-12-09,27.7686
1938-12-10,27.7686
1938-12-11,27.7686
1938-12-12,27.7686
1938-12-13,27.7686
1938-12-14,27.7686
1938-12-15,27.7686
1938-12-16,27.7686
1938-12-17,27.7686
1938-12-18,27.7686
1938-12-19,27.7686
1938-12-20,27.7686
1938-12-21,27.7686
1938-12-22,27.7686
1938-12-23,27.7686
1938-12-24,27.7686
1938-12-25,27.7686
1938-12-26,27.7686
1938-12-27,27.7686
1938-12-28,27.7686
1938-12-29,27.7686
1938-12-30,27.7686
1938-12-31,27.7686
1939-01-01,27.7686
1939-01-02,29.75207
1939-01-03,29.75207